contact:dominique.lefevre@mio.osupytheas.fr, maurice.libes@osupytheas.fr, didier.mallarino@osupytheas.fr
Project:EMSO http://www.emso-fr.org/EMSO-France
Depth: 2436.0 m
Title:EMSO Ligure Ouest : Data MII capteur AQUADOPP
Date,Latitude,Longitude,X_East,Y_North,Z_Up,Amplitude_X,Amplitude_Y,Amplitude_Z,Batterie,SoundSpeed,Heading,Pitch,Roll,Pressure,TIS,Speed,Direction
, degrees North, degrees East, m.s-1, m.s-1,m.s-1, 1, 1, 1, Volt, m.s-1, degree, degree, degree, dbar, degree_C, m.s-1, degree
2021-06-16T00:04:03,42.805,6.029,0.01,-0.033,0.015,102.0,102.0,101.0,13.4,1505.2,325.5,-0.7,1.8,2470.674,13.28,0.034,163.1
2021-06-16T00:07:03,42.805,6.029,0.02,-0.01,0.004,103.0,102.0,101.0,13.3,1505.2,326.4,-0.7,1.8,2470.702,13.28,0.022,116.6
2021-06-16T00:10:03,42.805,6.029,-0.004,-0.009,-0.007,103.0,102.0,101.0,13.4,1505.2,328.1,-0.8,1.8,2470.634,13.28,0.009,204.0
2021-06-16T00:13:03,42.805,6.029,0.024,-0.017,0.013,103.0,102.0,101.0,13.4,1505.2,326.1,-0.8,1.8,2470.647,13.28,0.029,125.3
2021-06-16T00:16:03,42.805,6.029,0.018,-0.018,0.01,102.0,103.0,100.0,13.4,1505.2,325.1,-0.8,1.8,2470.657,13.28,0.025,135.0
2021-06-16T00:19:03,42.805,6.029,0.01,-0.011,-0.006,102.0,102.0,103.0,13.3,1505.2,326.2,-0.8,1.8,2470.619,13.28,0.014,137.7
2021-06-16T00:22:03,42.805,6.029,0.026,-0.027,0.004,102.0,103.0,101.0,13.3,1505.2,328.3,-0.8,1.8,2470.64,13.28,0.037,136.1
2021-06-16T00:25:03,42.805,6.029,0.023,-0.02,0.001,102.0,103.0,100.0,13.4,1505.2,325.8,-0.7,1.8,2470.646,13.28,0.03,131.0
2021-06-16T00:28:03,42.805,6.029,-0.002,-0.05,-0.042,103.0,103.0,101.0,13.4,1505.2,329.4,-0.8,1.8,2470.64,13.28,0.05,182.3
2021-06-16T00:31:03,42.805,6.029,0.017,-0.028,0.023,103.0,101.0,101.0,13.4,1505.2,324.8,-0.7,1.8,2470.654,13.28,0.032,148.7
2021-06-16T00:34:03,42.805,6.029,0.022,-0.018,0.026,103.0,103.0,101.0,13.4,1505.2,327.2,-0.7,1.8,2470.596,13.28,0.028,129.3
2021-06-16T00:37:03,42.805,6.029,-0.013,-0.02,0.029,105.0,102.0,100.0,13.4,1505.2,328.5,-0.7,1.8,2470.663,13.28,0.023,213.0
2021-06-16T00:40:03,42.805,6.029,0.033,-0.025,0.017,104.0,103.0,101.0,13.3,1505.2,329.5,-0.8,1.8,2470.686,13.28,0.041,127.1
2021-06-16T00:43:03,42.805,6.029,0.011,-0.015,0.01,101.0,103.0,102.0,13.4,1505.2,329.7,-0.8,1.8,2470.625,13.28,0.018,143.7
2021-06-16T00:46:03,42.805,6.029,0.038,-0.042,0.036,101.0,102.0,102.0,13.3,1505.2,326.5,-0.8,1.9,2470.615,13.28,0.056,137.9
2021-06-16T00:49:03,42.805,6.029,-0.003,-0.011,-0.018,102.0,103.0,101.0,13.4,1505.2,326.0,-0.8,1.8,2470.635,13.28,0.011,195.3
2021-06-16T00:52:03,42.805,6.029,0.004,-0.015,-0.003,102.0,103.0,101.0,13.3,1505.2,327.0,-0.8,1.8,2470.664,13.28,0.015,165.1
2021-06-16T00:55:03,42.805,6.029,0.013,-0.029,-0.04,103.0,103.0,101.0,13.4,1505.2,326.3,-0.8,1.8,2470.611,13.28,0.031,155.9
2021-06-16T00:58:03,42.805,6.029,0.022,-0.034,-0.003,104.0,103.0,100.0,13.3,1505.2,328.3,-0.8,1.8,2470.616,13.28,0.04,147.1
2021-06-16T01:04:03,42.805,6.029,0.036,-0.026,-0.011,102.0,103.0,102.0,13.4,1505.2,328.0,-0.8,1.8,2470.691,13.28,0.044,125.8
2021-06-16T01:07:03,42.805,6.029,0.006,-0.029,-0.01,102.0,102.0,102.0,13.4,1505.2,328.7,-0.8,1.8,2470.65,13.28,0.029,168.3
2021-06-16T01:10:03,42.805,6.029,0.021,-0.03,0.006,103.0,102.0,101.0,13.4,1505.2,326.0,-0.8,1.8,2470.631,13.28,0.036,145.0
2021-06-16T01:13:03,42.805,6.029,0.038,-0.027,-0.016,103.0,105.0,100.0,13.4,1505.2,326.3,-0.8,1.8,2470.668,13.28,0.046,125.4
2021-06-16T01:16:03,42.805,6.029,0.032,-0.029,0.018,103.0,103.0,101.0,13.3,1505.2,326.4,-0.8,1.9,2470.627,13.28,0.043,132.2
2021-06-16T01:19:03,42.805,6.029,0.017,-0.032,0.001,101.0,103.0,101.0,13.4,1505.2,328.4,-0.8,1.8,2470.658,13.28,0.036,152.0
2021-06-16T01:22:03,42.805,6.029,0.021,-0.016,0.001,103.0,103.0,101.0,13.4,1505.2,326.1,-0.7,1.8,2470.63,13.28,0.026,127.3
2021-06-16T01:25:03,42.805,6.029,0.021,-0.026,-0.002,103.0,101.0,101.0,13.4,1505.2,328.0,-0.8,1.8,2470.664,13.28,0.033,141.1
2021-06-16T01:28:03,42.805,6.029,0.036,-0.009,0.007,104.0,103.0,102.0,13.4,1505.2,329.1,-0.8,1.8,2470.648,13.28,0.037,104.0
2021-06-16T01:31:03,42.805,6.029,0.017,-0.011,-0.003,103.0,103.0,101.0,13.3,1505.2,324.4,-0.7,1.8,2470.64,13.28,0.02,122.9
2021-06-16T01:34:03,42.805,6.029,0.012,-0.01,0.02,102.0,103.0,102.0,13.3,1505.2,326.4,-0.8,1.8,2470.61,13.28,0.015,129.8
2021-06-16T01:37:03,42.805,6.029,0.006,-0.003,0.018,102.0,102.0,102.0,13.3,1505.2,330.0,-0.8,1.8,2470.613,13.28,0.006,116.6
2021-06-16T01:40:03,42.805,6.029,0.014,-0.025,-0.001,102.0,103.0,102.0,13.3,1505.2,325.4,-0.7,1.8,2470.627,13.28,0.028,150.7
2021-06-16T01:43:03,42.805,6.029,0.022,-0.035,0.0,104.0,101.0,102.0,13.3,1505.2,325.1,-0.7,1.8,2470.609,13.28,0.041,147.8
2021-06-16T01:46:03,42.805,6.029,0.015,-0.011,-0.007,104.0,103.0,101.0,13.4,1505.2,329.6,-0.7,1.8,2470.639,13.28,0.018,126.3
2021-06-16T01:49:03,42.805,6.029,0.013,-0.016,0.028,102.0,103.0,102.0,13.3,1505.2,328.5,-0.8,1.9,2470.623,13.28,0.02,140.9
2021-06-16T01:52:03,42.805,6.029,0.006,-0.006,-0.004,104.0,100.0,101.0,13.4,1505.2,325.9,-0.8,1.8,2470.587,13.28,0.008,135.0
2021-06-16T01:55:03,42.805,6.029,0.019,-0.007,0.026,103.0,103.0,101.0,13.4,1505.2,328.7,-0.8,1.8,2470.62,13.28,0.02,110.2
2021-06-16T01:58:03,42.805,6.029,0.012,-0.026,0.024,102.0,103.0,102.0,13.3,1505.2,327.4,-0.7,1.8,2470.605,13.28,0.028,155.2
2021-06-16T02:04:03,42.805,6.029,0.03,-0.004,-0.016,102.0,104.0,101.0,13.4,1505.2,327.9,-0.7,1.8,2470.677,13.28,0.03,97.6
2021-06-16T02:07:03,42.805,6.029,0.031,-0.029,0.007,101.0,104.0,102.0,13.4,1505.2,326.3,-0.8,1.8,2470.65,13.28,0.042,133.1
2021-06-16T02:10:03,42.805,6.029,0.017,-0.022,0.003,103.0,102.0,103.0,13.4,1505.2,326.9,-0.7,1.8,2470.584,13.28,0.027,142.3
2021-06-16T02:13:03,42.805,6.029,0.021,-0.014,0.012,104.0,102.0,102.0,13.4,1505.2,326.7,-0.7,1.8,2470.581,13.28,0.025,123.7
2021-06-16T02:16:03,42.805,6.029,0.007,0.0,0.001,103.0,102.0,101.0,13.4,1505.2,327.5,-0.8,1.8,2470.606,13.28,0.007,90.0
2021-06-16T02:19:03,42.805,6.029,0.032,-0.016,-0.015,104.0,103.0,102.0,13.4,1505.2,326.3,-0.8,1.8,2470.601,13.28,0.035,116.6
2021-06-16T02:22:03,42.805,6.029,0.016,-0.027,-0.025,103.0,102.0,102.0,13.4,1505.2,325.9,-0.8,1.8,2470.639,13.28,0.031,149.3
2021-06-16T02:25:03,42.805,6.029,0.002,-0.031,0.008,104.0,103.0,100.0,13.4,1505.2,325.0,-0.7,1.8,2470.613,13.28,0.031,176.3
2021-06-16T02:28:03,42.805,6.029,0.022,-0.02,0.02,103.0,103.0,101.0,13.4,1505.2,326.5,-0.8,1.8,2470.623,13.28,0.029,132.3
2021-06-16T02:31:03,42.805,6.029,0.033,-0.025,0.0,102.0,103.0,102.0,13.4,1505.2,326.4,-0.7,1.8,2470.642,13.28,0.041,127.1
2021-06-16T02:34:03,42.805,6.029,0.013,-0.022,-0.018,105.0,101.0,100.0,13.4,1505.2,326.4,-0.7,1.8,2470.552,13.28,0.025,149.4
2021-06-16T02:37:03,42.805,6.029,0.005,-0.007,0.0,103.0,103.0,101.0,13.4,1505.2,330.4,-0.8,1.8,2470.604,13.28,0.008,144.5
2021-06-16T02:40:03,42.805,6.029,0.024,-0.028,-0.011,102.0,102.0,102.0,13.4,1505.2,325.8,-0.7,1.8,2470.602,13.28,0.036,139.4
2021-06-16T02:43:03,42.805,6.029,0.009,-0.037,-0.004,102.0,104.0,101.0,13.4,1505.2,326.2,-0.8,1.8,2470.63,13.28,0.038,166.3
2021-06-16T02:46:03,42.805,6.029,0.007,-0.036,0.011,104.0,102.0,101.0,13.4,1505.2,327.3,-0.8,1.8,2470.618,13.28,0.036,169.0
2021-06-16T02:49:03,42.805,6.029,0.008,-0.016,-0.002,104.0,101.0,102.0,13.4,1505.2,327.0,-0.7,1.8,2470.576,13.28,0.017,153.4
2021-06-16T02:52:03,42.805,6.029,0.006,-0.036,-0.006,104.0,101.0,102.0,13.4,1505.2,328.6,-0.8,1.8,2470.6,13.28,0.036,170.5
2021-06-16T02:55:03,42.805,6.029,0.019,-0.023,0.012,104.0,103.0,101.0,13.4,1505.2,328.7,-0.8,1.9,2470.565,13.28,0.029,140.4
2021-06-16T02:58:03,42.805,6.029,0.021,-0.005,-0.001,103.0,103.0,101.0,13.4,1505.2,329.8,-0.8,1.8,2470.557,13.28,0.021,103.4
2021-06-16T03:04:03,42.805,6.029,0.012,-0.004,0.001,102.0,102.0,101.0,13.4,1505.2,324.7,-0.8,1.8,2470.638,13.28,0.012,108.4
2021-06-16T03:07:03,42.805,6.029,0.018,-0.021,0.019,102.0,104.0,101.0,13.4,1505.2,326.7,-0.8,1.8,2470.582,13.28,0.027,139.4
2021-06-16T03:10:03,42.805,6.029,0.028,-0.03,-0.003,103.0,103.0,103.0,13.4,1505.2,327.1,-0.8,1.8,2470.603,13.28,0.041,137.0
2021-06-16T03:13:03,42.805,6.029,0.021,-0.025,-0.015,103.0,102.0,101.0,13.3,1505.2,326.0,-0.8,1.8,2470.561,13.28,0.032,140.0
2021-06-16T03:16:03,42.805,6.029,0.019,-0.015,0.021,102.0,103.0,101.0,13.4,1505.2,324.4,-0.7,1.9,2470.63,13.28,0.024,128.3
2021-06-16T03:19:03,42.805,6.029,0.039,-0.027,0.001,103.0,102.0,101.0,13.4,1505.2,326.4,-0.8,1.8,2470.614,13.28,0.047,124.7
2021-06-16T03:22:03,42.805,6.029,0.02,-0.019,0.014,102.0,103.0,101.0,13.4,1505.2,330.1,-0.8,1.8,2470.592,13.28,0.027,133.5
2021-06-16T03:25:03,42.805,6.029,0.023,-0.035,0.01,103.0,102.0,101.0,13.4,1505.2,326.8,-0.8,1.8,2470.575,13.28,0.041,146.7
2021-06-16T03:28:03,42.805,6.029,0.016,0.011,0.006,102.0,103.0,102.0,13.4,1505.2,329.6,-0.7,1.8,2470.589,13.28,0.019,55.5
2021-06-16T03:31:03,42.805,6.029,0.026,-0.037,-0.009,102.0,102.0,101.0,13.4,1505.2,328.5,-0.8,1.8,2470.533,13.28,0.045,144.9
2021-06-16T03:34:03,42.805,6.029,0.015,-0.004,0.016,103.0,103.0,100.0,13.4,1505.2,329.5,-0.8,1.8,2470.598,13.28,0.015,104.9
2021-06-16T03:37:03,42.805,6.029,0.001,-0.034,0.003,101.0,102.0,101.0,13.4,1505.2,325.3,-0.7,1.8,2470.577,13.28,0.034,178.3
2021-06-16T03:40:03,42.805,6.029,0.032,-0.036,0.0,102.0,103.0,101.0,13.4,1505.2,325.5,-0.8,1.8,2470.564,13.28,0.048,138.4
2021-06-16T03:43:03,42.805,6.029,0.013,-0.007,0.015,102.0,103.0,100.0,13.4,1505.2,327.4,-0.7,1.8,2470.609,13.28,0.014,118.3
2021-06-16T03:46:03,42.805,6.029,0.01,-0.026,0.016,102.0,102.0,101.0,13.4,1505.2,328.1,-0.8,1.8,2470.574,13.28,0.027,159.0
2021-06-16T03:49:03,42.805,6.029,0.0,-0.025,-0.015,104.0,102.0,101.0,13.3,1505.2,327.5,-0.8,1.8,2470.582,13.28,0.025,180.0
2021-06-16T03:52:03,42.805,6.029,0.02,-0.042,0.0,104.0,103.0,101.0,13.4,1505.2,326.3,-0.8,1.8,2470.521,13.28,0.046,154.5
2021-06-16T03:55:03,42.805,6.029,0.036,-0.031,0.0,103.0,103.0,101.0,13.4,1505.2,326.1,-0.7,1.8,2470.571,13.28,0.047,130.7
2021-06-16T03:58:03,42.805,6.029,0.006,-0.031,-0.024,102.0,102.0,101.0,13.4,1505.2,325.4,-0.7,1.8,2470.574,13.28,0.031,169.0
2021-06-16T04:04:03,42.805,6.029,0.022,-0.029,0.013,103.0,103.0,100.0,13.4,1505.2,328.3,-0.8,1.8,2470.591,13.28,0.036,142.8
2021-06-16T04:07:03,42.805,6.029,0.007,-0.029,-0.01,103.0,103.0,102.0,13.4,1505.2,328.8,-0.8,1.8,2470.618,13.28,0.029,166.4
2021-06-16T04:10:03,42.805,6.029,0.017,0.0,-0.035,103.0,103.0,101.0,13.3,1505.2,326.3,-0.7,1.8,2470.53,13.28,0.017,90.0
2021-06-16T04:13:03,42.805,6.029,0.021,-0.027,0.0,103.0,102.0,101.0,13.3,1505.2,325.2,-0.8,1.8,2470.566,13.28,0.034,142.1
2021-06-16T04:16:03,42.805,6.029,0.022,0.0,-0.003,105.0,102.0,101.0,13.4,1505.2,325.9,-0.7,1.8,2470.525,13.28,0.022,90.0
2021-06-16T04:19:03,42.805,6.029,0.034,-0.037,-0.012,102.0,104.0,100.0,13.4,1505.2,324.5,-0.8,1.8,2470.604,13.28,0.05,137.4
2021-06-16T04:22:03,42.805,6.029,0.044,-0.018,-0.015,103.0,102.0,101.0,13.3,1505.2,326.9,-0.7,1.8,2470.515,13.28,0.047,112.2
2021-06-16T04:25:03,42.805,6.029,0.031,-0.042,-0.001,102.0,103.0,102.0,13.3,1505.2,327.4,-0.7,1.8,2470.516,13.28,0.052,143.6
2021-06-16T04:28:03,42.805,6.029,0.024,-0.02,-0.004,104.0,104.0,100.0,13.4,1505.2,327.9,-0.8,1.8,2470.559,13.28,0.031,129.8
2021-06-16T04:31:03,42.805,6.029,0.0,-0.008,-0.003,103.0,103.0,102.0,13.4,1505.2,328.5,-0.7,1.8,2470.576,13.28,0.008,180.0
2021-06-16T04:34:03,42.805,6.029,0.026,-0.039,0.005,102.0,103.0,101.0,13.4,1505.2,329.2,-0.8,1.9,2470.593,13.28,0.046,146.3
2021-06-16T04:37:03,42.805,6.029,-0.003,-0.023,0.005,103.0,102.0,102.0,13.4,1505.2,327.7,-0.7,1.8,2470.561,13.28,0.023,187.4
2021-06-16T04:40:03,42.805,6.029,0.027,-0.028,0.008,103.0,104.0,102.0,13.4,1505.2,324.2,-0.7,1.8,2470.494,13.28,0.038,136.0
2021-06-16T04:43:03,42.805,6.029,0.011,-0.011,-0.004,103.0,102.0,101.0,13.4,1505.2,326.8,-0.8,1.8,2470.562,13.28,0.015,135.0
2021-06-16T04:46:03,42.805,6.029,0.03,-0.031,-0.02,104.0,103.0,101.0,13.3,1505.2,324.2,-0.8,1.8,2470.527,13.28,0.043,135.9
2021-06-16T04:49:03,42.805,6.029,0.026,-0.017,0.014,103.0,104.0,102.0,13.4,1505.2,327.0,-0.8,1.8,2470.553,13.28,0.031,123.2
2021-06-16T04:52:03,42.805,6.029,0.019,-0.025,-0.02,104.0,103.0,101.0,13.4,1505.2,326.1,-0.7,1.8,2470.546,13.28,0.031,142.8
2021-06-16T04:55:03,42.805,6.029,0.022,-0.019,-0.005,104.0,102.0,100.0,13.3,1505.2,325.1,-0.7,1.8,2470.525,13.28,0.029,130.8
2021-06-16T04:58:03,42.805,6.029,0.023,-0.011,-0.039,103.0,101.0,102.0,13.4,1505.2,327.8,-0.8,1.8,2470.499,13.28,0.025,115.6
2021-06-16T05:04:03,42.805,6.029,0.013,-0.037,-0.006,103.0,102.0,101.0,13.3,1505.2,326.5,-0.7,1.8,2470.563,13.28,0.039,160.6
2021-06-16T05:07:03,42.805,6.029,0.036,-0.018,0.013,102.0,101.0,102.0,13.3,1505.2,324.1,-0.8,1.8,2470.549,13.28,0.04,116.6
2021-06-16T05:10:03,42.805,6.029,0.007,-0.03,-0.041,103.0,102.0,101.0,13.4,1505.2,329.5,-0.7,1.8,2470.539,13.28,0.03,166.9
2021-06-16T05:13:03,42.805,6.029,0.019,-0.007,-0.017,103.0,102.0,101.0,13.3,1505.2,327.3,-0.7,1.8,2470.577,13.28,0.02,110.2
2021-06-16T05:16:03,42.805,6.029,0.02,-0.022,-0.006,104.0,102.0,101.0,13.4,1505.2,325.9,-0.7,1.8,2470.505,13.28,0.029,137.7
2021-06-16T05:19:03,42.805,6.029,0.026,-0.023,0.021,103.0,103.0,101.0,13.4,1505.2,328.6,-0.7,1.8,2470.564,13.28,0.034,131.5
2021-06-16T05:22:03,42.805,6.029,0.028,-0.02,0.015,103.0,104.0,101.0,13.3,1505.2,326.7,-0.7,1.9,2470.551,13.28,0.034,125.5
2021-06-16T05:25:03,42.805,6.029,0.017,-0.018,-0.013,103.0,102.0,102.0,13.4,1505.2,328.2,-0.7,1.8,2470.541,13.28,0.024,136.6
2021-06-16T05:28:03,42.805,6.029,0.027,-0.023,-0.002,103.0,103.0,101.0,13.4,1505.2,328.6,-0.7,1.8,2470.553,13.28,0.035,130.4
2021-06-16T05:31:03,42.805,6.029,0.01,-0.012,-0.014,104.0,103.0,101.0,13.4,1505.2,330.0,-0.8,1.8,2470.517,13.28,0.015,140.2
2021-06-16T05:34:03,42.805,6.029,0.019,-0.019,-0.016,103.0,103.0,101.0,13.4,1505.2,324.3,-0.8,1.9,2470.512,13.28,0.026,135.0
2021-06-16T05:37:03,42.805,6.029,0.006,-0.048,-0.036,102.0,103.0,101.0,13.3,1505.2,327.7,-0.8,1.8,2470.535,13.28,0.048,172.9
2021-06-16T05:40:03,42.805,6.029,0.028,-0.025,-0.002,103.0,102.0,102.0,13.4,1505.2,327.7,-0.7,1.8,2470.541,13.28,0.037,131.8
2021-06-16T05:43:03,42.805,6.029,-0.001,-0.035,-0.008,102.0,102.0,103.0,13.3,1505.2,326.9,-0.8,1.8,2470.521,13.28,0.035,181.6
2021-06-16T05:46:03,42.805,6.029,0.027,-0.034,-0.011,102.0,105.0,102.0,13.4,1505.2,326.0,-0.8,1.8,2470.566,13.28,0.043,141.5
2021-06-16T05:49:03,42.805,6.029,0.011,-0.017,-0.011,103.0,102.0,102.0,13.4,1505.2,329.1,-0.8,1.8,2470.549,13.28,0.02,147.1
2021-06-16T05:52:03,42.805,6.029,0.026,-0.037,0.002,103.0,103.0,101.0,13.4,1505.2,326.5,-0.7,1.8,2470.512,13.28,0.045,144.9
2021-06-16T05:55:03,42.805,6.029,0.013,-0.027,-0.031,102.0,102.0,101.0,13.3,1505.2,326.5,-0.8,1.8,2470.51,13.28,0.029,154.3
2021-06-16T05:58:03,42.805,6.029,0.019,-0.013,0.003,102.0,101.0,103.0,13.4,1505.2,325.2,-0.8,1.8,2470.566,13.28,0.023,124.4
2021-06-16T06:01:03,42.805,6.029,0.032,-0.01,-0.026,103.0,103.0,101.0,13.3,1505.2,328.5,-0.7,1.8,2470.505,13.28,0.033,107.4
2021-06-16T06:04:03,42.805,6.029,0.027,-0.028,0.0,103.0,104.0,101.0,13.4,1505.2,327.0,-0.8,1.8,2470.527,13.28,0.038,136.0
2021-06-16T06:07:03,42.805,6.029,0.026,-0.032,0.003,103.0,102.0,102.0,13.4,1505.2,328.3,-0.8,1.8,2470.526,13.28,0.041,140.9
2021-06-16T06:10:03,42.805,6.029,0.021,-0.031,-0.017,103.0,103.0,102.0,13.3,1505.2,325.8,-0.8,1.8,2470.566,13.28,0.037,145.9
2021-06-16T06:13:03,42.805,6.029,0.037,-0.033,-0.001,103.0,103.0,102.0,13.3,1505.2,325.6,-0.7,1.8,2470.56,13.28,0.049,131.7
2021-06-16T06:16:03,42.805,6.029,0.051,-0.02,0.012,102.0,104.0,101.0,13.3,1505.2,327.1,-0.8,1.8,2470.555,13.28,0.054,111.4
2021-06-16T06:19:03,42.805,6.029,0.012,-0.009,0.021,103.0,102.0,101.0,13.4,1505.2,326.7,-0.8,1.8,2470.544,13.28,0.015,126.9
2021-06-16T06:22:03,42.805,6.029,0.061,-0.013,0.007,102.0,104.0,101.0,13.3,1505.2,326.3,-0.8,1.8,2470.506,13.28,0.062,102.0
2021-06-16T06:25:03,42.805,6.029,0.04,-0.014,0.015,103.0,104.0,102.0,13.3,1505.2,326.5,-0.7,1.8,2470.52,13.28,0.042,109.3
2021-06-16T06:28:03,42.805,6.029,0.017,-0.032,-0.021,101.0,103.0,101.0,13.3,1505.2,327.9,-0.8,1.8,2470.54,13.28,0.036,152.0
2021-06-16T06:31:03,42.805,6.029,0.04,-0.028,0.02,103.0,108.0,101.0,13.4,1505.2,324.6,-0.8,1.8,2470.537,13.28,0.048,125.0
2021-06-16T06:34:03,42.805,6.029,0.035,-0.021,0.025,104.0,104.0,101.0,13.3,1505.2,327.2,-0.7,1.8,2470.527,13.28,0.04,121.0
2021-06-16T06:37:03,42.805,6.029,0.024,-0.016,0.003,103.0,103.0,102.0,13.4,1505.2,330.1,-0.8,1.8,2470.487,13.28,0.028,123.7
2021-06-16T06:40:03,42.805,6.029,0.015,-0.016,-0.035,104.0,104.0,100.0,13.3,1505.2,325.6,-0.8,1.8,2470.512,13.28,0.021,136.9
2021-06-16T06:43:03,42.805,6.029,0.029,-0.049,-0.025,104.0,103.0,102.0,13.4,1505.2,324.7,-0.7,1.8,2470.518,13.28,0.056,149.4
2021-06-16T06:46:03,42.805,6.029,0.024,-0.004,0.012,102.0,102.0,103.0,13.3,1505.2,329.3,-0.8,1.8,2470.503,13.28,0.024,99.5
2021-06-16T06:49:03,42.805,6.029,0.03,-0.038,0.033,103.0,104.0,101.0,13.4,1505.2,329.6,-0.8,1.8,2470.493,13.28,0.048,141.7
2021-06-16T06:52:03,42.805,6.029,0.03,-0.038,-0.007,103.0,103.0,101.0,13.3,1505.2,325.6,-0.8,1.8,2470.468,13.28,0.048,141.7
2021-06-16T06:55:03,42.805,6.029,0.019,-0.015,0.017,104.0,103.0,102.0,13.4,1505.2,328.2,-0.8,1.8,2470.523,13.28,0.024,128.3
2021-06-16T06:58:03,42.805,6.029,-0.001,-0.015,-0.018,103.0,103.0,101.0,13.4,1505.2,324.3,-0.7,1.8,2470.524,13.28,0.015,183.8
2021-06-16T07:04:03,42.805,6.029,0.037,-0.025,0.009,103.0,103.0,102.0,13.3,1505.2,329.0,-0.8,1.8,2470.532,13.28,0.044,124.0
2021-06-16T07:07:03,42.805,6.029,0.024,-0.019,-0.031,102.0,103.0,102.0,13.3,1505.2,325.9,-0.7,1.8,2470.528,13.28,0.03,128.4
2021-06-16T07:10:03,42.805,6.029,0.033,-0.025,0.026,104.0,103.0,101.0,13.4,1505.2,326.8,-0.8,1.8,2470.537,13.28,0.041,127.1
2021-06-16T07:13:03,42.805,6.029,0.032,-0.035,-0.002,103.0,103.0,102.0,13.3,1505.2,324.8,-0.8,1.8,2470.525,13.28,0.047,137.6
2021-06-16T07:16:03,42.805,6.029,0.025,-0.009,0.024,103.0,103.0,101.0,13.4,1505.2,328.2,-0.8,1.8,2470.509,13.28,0.026,109.8
2021-06-16T07:19:03,42.805,6.029,0.038,-0.034,0.0,102.0,103.0,102.0,13.4,1505.2,329.2,-0.7,1.8,2470.505,13.28,0.05,131.8
2021-06-16T07:22:03,42.805,6.029,0.038,-0.032,0.001,103.0,102.0,102.0,13.4,1505.2,327.8,-0.8,1.9,2470.494,13.28,0.049,130.1
2021-06-16T07:25:03,42.805,6.029,0.02,-0.016,0.007,104.0,103.0,101.0,13.4,1505.2,325.0,-0.8,1.8,2470.51,13.28,0.025,128.7
2021-06-16T07:28:03,42.805,6.029,0.033,-0.017,0.026,103.0,102.0,101.0,13.4,1505.2,329.3,-0.7,1.8,2470.539,13.28,0.037,117.3
2021-06-16T07:31:03,42.805,6.029,0.04,-0.026,-0.006,103.0,107.0,101.0,13.4,1505.2,328.1,-0.7,1.8,2470.526,13.28,0.047,123.0
2021-06-16T07:34:03,42.805,6.029,0.047,-0.031,-0.017,103.0,103.0,101.0,13.3,1505.2,327.0,-0.7,1.9,2470.548,13.28,0.056,123.4
2021-06-16T07:37:03,42.805,6.029,0.017,-0.02,-0.003,105.0,103.0,101.0,13.3,1505.2,326.8,-0.7,1.8,2470.494,13.28,0.026,139.6
2021-06-16T07:40:03,42.805,6.029,0.028,-0.023,0.006,104.0,103.0,101.0,13.3,1505.2,329.7,-0.7,1.8,2470.495,13.28,0.036,129.4
2021-06-16T07:43:03,42.805,6.029,0.038,-0.034,0.02,104.0,102.0,102.0,13.3,1505.2,324.4,-0.8,1.8,2470.516,13.28,0.05,131.8
2021-06-16T07:46:03,42.805,6.029,0.031,-0.027,0.014,103.0,103.0,101.0,13.4,1505.2,325.0,-0.8,1.8,2470.543,13.28,0.041,131.1
2021-06-16T07:49:03,42.805,6.029,0.043,-0.037,0.022,103.0,102.0,102.0,13.4,1505.2,328.4,-0.8,1.8,2470.513,13.28,0.056,130.7
2021-06-16T07:52:03,42.805,6.029,0.037,-0.023,0.014,102.0,104.0,102.0,13.4,1505.2,328.4,-0.7,1.8,2470.537,13.28,0.043,121.9
2021-06-16T07:55:03,42.805,6.029,0.018,-0.017,0.016,102.0,104.0,102.0,13.4,1505.2,327.2,-0.7,1.8,2470.519,13.28,0.024,133.4
2021-06-16T07:58:03,42.805,6.029,0.037,-0.043,0.004,103.0,103.0,103.0,13.3,1505.2,327.0,-0.7,1.9,2470.535,13.28,0.056,139.3
2021-06-16T08:04:03,42.805,6.029,0.028,-0.019,0.016,103.0,103.0,102.0,13.4,1505.2,326.0,-0.8,1.8,2470.547,13.28,0.033,124.2
2021-06-16T08:07:03,42.805,6.029,0.015,-0.036,0.006,104.0,104.0,102.0,13.4,1505.2,327.5,-0.8,1.8,2470.498,13.28,0.039,157.4
2021-06-16T08:10:03,42.805,6.029,0.026,0.002,0.016,103.0,102.0,102.0,13.4,1505.2,326.7,-0.7,1.8,2470.531,13.28,0.026,85.6
2021-06-16T08:13:03,42.805,6.029,0.043,-0.037,-0.003,103.0,104.0,101.0,13.4,1505.2,324.6,-0.8,1.8,2470.518,13.28,0.056,130.7
2021-06-16T08:16:03,42.805,6.029,0.005,-0.001,0.0,102.0,103.0,101.0,13.3,1505.2,329.7,-0.7,1.8,2470.53,13.28,0.005,101.3
2021-06-16T08:19:03,42.805,6.029,-0.002,-0.015,0.015,102.0,103.0,102.0,13.4,1505.2,328.1,-0.7,1.8,2470.512,13.28,0.015,187.6
2021-06-16T08:22:03,42.805,6.029,0.033,-0.03,0.013,104.0,102.0,101.0,13.4,1505.2,328.2,-0.8,1.8,2470.515,13.28,0.044,132.3
2021-06-16T08:25:03,42.805,6.029,0.029,-0.021,-0.009,104.0,103.0,102.0,13.3,1505.2,325.7,-0.7,1.8,2470.518,13.28,0.035,125.9
2021-06-16T08:28:03,42.805,6.029,0.028,-0.017,-0.009,103.0,103.0,101.0,13.4,1505.2,325.7,-0.8,1.8,2470.553,13.28,0.032,121.3
2021-06-16T08:31:03,42.805,6.029,0.021,-0.015,-0.042,104.0,102.0,102.0,13.4,1505.2,326.5,-0.7,1.8,2470.518,13.28,0.025,125.5
2021-06-16T08:34:03,42.805,6.029,0.017,-0.028,-0.018,103.0,104.0,102.0,13.3,1505.2,327.5,-0.8,1.9,2470.571,13.28,0.032,148.7
2021-06-16T08:37:03,42.805,6.029,0.049,-0.019,0.016,104.0,101.0,102.0,13.4,1505.2,325.9,-0.8,1.9,2470.566,13.28,0.052,111.2
2021-06-16T08:40:03,42.805,6.029,0.023,-0.028,-0.011,104.0,103.0,101.0,13.4,1505.2,324.4,-0.7,1.8,2470.525,13.28,0.036,140.6
2021-06-16T08:43:03,42.805,6.029,0.019,-0.021,-0.007,104.0,103.0,101.0,13.4,1505.2,329.5,-0.8,1.8,2470.558,13.28,0.028,137.9
2021-06-16T08:46:03,42.805,6.029,0.014,-0.019,-0.025,102.0,103.0,102.0,13.3,1505.2,325.4,-0.7,1.8,2470.571,13.28,0.023,143.6
2021-06-16T08:49:03,42.805,6.029,0.035,-0.02,-0.008,103.0,104.0,101.0,13.4,1505.2,328.9,-0.7,1.8,2470.574,13.28,0.04,119.7
2021-06-16T08:52:03,42.805,6.029,0.051,-0.038,-0.013,103.0,103.0,102.0,13.4,1505.2,324.7,-0.8,1.8,2470.527,13.28,0.063,126.7
2021-06-16T08:55:03,42.805,6.029,0.039,-0.036,0.013,102.0,103.0,102.0,13.4,1505.2,326.2,-0.8,1.8,2470.544,13.28,0.053,132.7
2021-06-16T08:58:03,42.805,6.029,0.018,-0.012,-0.01,103.0,103.0,102.0,13.4,1505.2,329.2,-0.7,1.8,2470.505,13.28,0.021,123.7
2021-06-16T09:04:03,42.805,6.029,0.026,-0.019,-0.018,101.0,102.0,102.0,13.4,1505.2,329.6,-0.7,1.8,2470.553,13.28,0.032,126.2
2021-06-16T09:07:03,42.805,6.029,0.038,-0.019,0.018,104.0,103.0,101.0,13.4,1505.2,324.5,-0.7,1.8,2470.556,13.28,0.042,116.6
2021-06-16T09:10:03,42.805,6.029,0.034,-0.025,0.018,103.0,103.0,101.0,13.3,1505.2,325.6,-0.7,1.8,2470.583,13.28,0.042,126.3
2021-06-16T09:13:03,42.805,6.029,0.042,-0.024,0.014,103.0,103.0,102.0,13.3,1505.2,324.9,-0.8,1.8,2470.577,13.28,0.048,119.7
2021-06-16T09:16:03,42.805,6.029,0.053,-0.024,0.009,102.0,103.0,101.0,13.4,1505.2,325.7,-0.8,1.8,2470.543,13.28,0.058,114.4
2021-06-16T09:19:03,42.805,6.029,0.03,-0.038,-0.043,103.0,103.0,102.0,13.4,1505.2,325.5,-0.7,1.8,2470.552,13.28,0.048,141.7
2021-06-16T09:22:03,42.805,6.029,0.049,-0.017,0.039,102.0,101.0,101.0,13.4,1505.2,328.5,-0.7,1.8,2470.563,13.28,0.051,109.1
2021-06-16T09:25:03,42.805,6.029,0.032,-0.042,0.005,104.0,102.0,101.0,13.4,1505.2,326.3,-0.8,1.9,2470.577,13.28,0.052,142.7
2021-06-16T09:28:03,42.805,6.029,0.029,-0.025,0.005,103.0,102.0,100.0,13.4,1505.2,325.2,-0.7,1.8,2470.576,13.28,0.038,130.8
2021-06-16T09:31:03,42.805,6.029,0.038,-0.014,-0.007,103.0,103.0,101.0,13.4,1505.2,327.6,-0.8,1.8,2470.555,13.28,0.04,110.2
2021-06-16T09:34:03,42.805,6.029,0.034,-0.04,-0.039,102.0,103.0,102.0,13.4,1505.2,325.0,-0.8,1.8,2470.554,13.28,0.052,139.6
2021-06-16T09:37:03,42.805,6.029,0.013,-0.039,-0.017,103.0,103.0,101.0,13.4,1505.2,328.1,-0.8,1.8,2470.565,13.28,0.041,161.6
2021-06-16T09:40:03,42.805,6.029,0.006,-0.013,0.017,102.0,103.0,101.0,13.4,1505.2,325.9,-0.8,1.8,2470.569,13.28,0.014,155.2
2021-06-16T09:43:03,42.805,6.029,0.016,-0.041,-0.024,103.0,103.0,102.0,13.4,1505.2,328.8,-0.8,1.8,2470.541,13.28,0.044,158.7
2021-06-16T09:46:03,42.805,6.029,0.036,-0.036,-0.025,102.0,103.0,101.0,13.3,1505.2,328.2,-0.8,1.8,2470.563,13.28,0.05,135.0
2021-06-16T09:49:03,42.805,6.029,0.031,-0.034,-0.017,101.0,103.0,101.0,13.4,1505.2,328.1,-0.8,1.8,2470.576,13.28,0.046,137.6
2021-06-16T09:52:03,42.805,6.029,0.035,-0.029,0.005,103.0,103.0,102.0,13.4,1505.2,326.7,-0.8,1.8,2470.54,13.28,0.045,129.6